Regional Weather Roundup
Issued by NWS

Home | Current Version | Previous Version | Text Only | Print | Product List | Glossary Off
Versions: 1 2 3 4 5 6 7 8 9 10 11 12 13 14 15 16 17 18 19 20 21 22 23 24 25 26 27 28 29 30 31 32 33 34 35 36 37 38 39 40 41 42 43 44 45 46 47 48 49 50

181
ASUS44 KMEG 121910
RWRTN
TENNESSEE HOURLY STATE WEATHER ROUNDUP
NATIONAL WEATHER SERVICE MEMPHIS TN
100 PM CST FRI FEB 12 2016

TNZ002-004-019-021-049-052-054-088>092-122000-
WEST TENNESSEE

CITY           SKY/WX    TMP DP  RH WIND       PRES   REMARKS
MEMPHIS INTL   MOSUNNY   52  28  39 NW13      30.25F
NWS MEMPHIS      N/A     51 N/A N/A MISG        N/A
JACKSON        SUNNY     48  27  44 NW13      30.23F
DYERSBURG      SUNNY     45  27  49 N16       30.28S
UNION CITY     SUNNY     39  28  65 NW10      30.24F WCI  32
PARIS          SUNNY     39  25  56 NW10      30.22F WCI  32
LEXINGTON      SUNNY     46  21  36 NW10      30.19S
$$

TNZ008-025-027-028-033-062-065-066-122000-
NORTH MIDDLE TENNESSEE

CITY           SKY/WX    TMP DP  RH WIND       PRES   REMARKS
NASHVILLE      MOSUNNY   44  26  49 N3        30.18F
CLARKSVILLE    CLOUDY    39  29  67 NW15      30.21S WCI  31
SMYRNA         MOSUNNY   43  27  53 NW10      30.19F
COOKEVILLE     MOSUNNY   36  30  80 VRB5      30.13F WCI  32
CROSSVILLE     CLOUDY    35  27  72 NW12      30.10F WCI  27
$$

TNZ061-075-076-078-094-096-097-122000-
SOUTH MIDDLE TENNESSEE

CITY           SKY/WX    TMP DP  RH WIND       PRES   REMARKS
FAYETTEVILLE   CLOUDY    50  28  43 NW8G17    30.13S
TULLAHOMA      CLOUDY    45  25  45 N10       30.13F
WINCHESTER     CLOUDY    46  27  46 N9        30.13S
MCMINNVILLE    CLOUDY    43  28  56 VRB5      30.13F
COLUMBIA       PTSUNNY   46  28  49 N7        30.15F
SHELBYVILLE    CLOUDY    46  30  53 N8        30.16S
$$

TNZ017-018-042-046-047-122000-
NORTHEAST TENNESSEE

CITY           SKY/WX    TMP DP  RH WIND       PRES   REMARKS
TRI CITIES     LGT SNOW  30  27  88 W6        30.05F FOG     WCI  24
$$

TNZ012-013-036-069-073-074-122000-
CENTRAL EAST TENNESSEE

CITY           SKY/WX    TMP DP  RH WIND       PRES   REMARKS
KNOXVILLE      CLOUDY    32  30  92 SW7       30.12F WCI  26
OAK RIDGE      CLOUDY    36  31  82 VRB3      30.13F
GATLINBURG     CLOUDY    30  28  93 CALM      30.10F
MORRISTOWN     CLOUDY    32  30  93 W8        30.08F WCI  25
$$

TNZ083-085-099-122000-
SOUTHEAST TENNESSEE

CITY           SKY/WX    TMP DP  RH WIND       PRES   REMARKS
CHATTANOOGA    PTSUNNY   53  28  38 NW12      30.09F
$$

SKY/WX REPORTED AS FAIR MEANS FEW OR NO CLOUDS BELOW
12 THOUSAND FEET.





USA.gov is the U.S. government's official web portal to all federal, state and local government web resources and services.